DLH64P EDDM-LPPT

Flight info

Callsign DLH64P
Flight time N/A
Altitude 37000
Route MERSI4E/08R MERSI Y100 UMTEX Y100 TRA DCT LUTIX DCT BENOT DCT NEMOS DCT NINTU DCT MEBAK DCT REPSI/N0436F390 DCT LERGA DCT MINSO DCT NARAK DCT AGN DCT LATEK DCT PPN DCT MIRPO DCT DGO DCT NEA DCT ARDID DCT INBOM
Aircraft A320/M-SDE2E3FGIJ1LORWXYZ/HB1

Departure

Time 2026-05-01 13:22
Airport Munich Airport (EDDM)

Arrival

Time N/A
Airport Lisbon Humberto Delgado Airport (LPPT)
Time Latitude Longitude Altitude Speed Heading
2026-05-01 12:51 48.35201 11.79342 1476 ft 0 kts 263°
2026-05-01 13:07 48.35202 11.79347 1512 ft 3 kts 263°
2026-05-01 13:07 48.35205 11.79387 1481 ft 4 kts 261°
2026-05-01 13:07 48.35210 11.79427 1478 ft 4 kts 256°
2026-05-01 13:08 48.35219 11.79465 1473 ft 4 kts 240°
2026-05-01 13:08 48.35234 11.79490 1477 ft 3 kts 183°
2026-05-01 13:08 48.35238 11.79491 1479 ft 0 kts 174°
2026-05-01 13:10 48.35215 11.79494 1483 ft 10 kts 174°
2026-05-01 13:10 48.35113 11.79513 1483 ft 14 kts 172°
2026-05-01 13:11 48.35004 11.79533 1482 ft 17 kts 174°
2026-05-01 13:11 48.34898 11.79550 1476 ft 9 kts 173°
2026-05-01 13:11 48.34870 11.79555 1477 ft 0 kts 174°
2026-05-01 13:12 48.34863 11.79556 1477 ft 4 kts 174°
2026-05-01 13:12 48.34805 11.79548 1481 ft 13 kts 216°
2026-05-01 13:12 48.34779 11.79392 1479 ft 16 kts 263°
2026-05-01 13:12 48.34767 11.79230 1483 ft 15 kts 263°
2026-05-01 13:13 48.34753 11.79061 1485 ft 19 kts 263°
2026-05-01 13:13 48.34737 11.78841 1479 ft 24 kts 263°
2026-05-01 13:13 48.34718 11.78600 1482 ft 25 kts 263°
2026-05-01 13:13 48.34698 11.78347 1476 ft 26 kts 264°
2026-05-01 13:14 48.34677 11.78068 1482 ft 27 kts 264°
2026-05-01 13:14 48.34655 11.77780 1485 ft 22 kts 263°
2026-05-01 13:14 48.34636 11.77538 1474 ft 24 kts 263°
2026-05-01 13:14 48.34616 11.77275 1485 ft 24 kts 263°
2026-05-01 13:15 48.34595 11.77002 1476 ft 27 kts 263°
2026-05-01 13:15 48.34580 11.76819 1474 ft 20 kts 263°
2026-05-01 13:15 48.34563 11.76592 1480 ft 25 kts 263°
2026-05-01 13:15 48.34542 11.76307 1483 ft 30 kts 264°
2026-05-01 13:16 48.34520 11.76032 1479 ft 27 kts 263°
2026-05-01 13:16 48.34501 11.75784 1485 ft 25 kts 264°
2026-05-01 13:16 48.34481 11.75518 1475 ft 24 kts 263°
2026-05-01 13:17 48.34227 11.75249 1485 ft 16 kts 173°
2026-05-01 13:17 48.34117 11.75269 1485 ft 16 kts 173°
2026-05-01 13:18 48.34088 11.75352 1483 ft 0 kts 83°
2026-05-01 13:21 48.34091 11.75398 1478 ft 19 kts 83°
2026-05-01 13:21 48.34138 11.75999 1480 ft 93 kts 83°
2026-05-01 13:21 48.34233 11.77262 1486 ft 147 kts 84°
2026-05-01 13:21 48.34359 11.78914 1912 ft 162 kts 84°
2026-05-01 13:22 48.34479 11.80581 2733 ft 162 kts 82°
2026-05-01 13:22 48.34608 11.82337 3227 ft 179 kts 83°
2026-05-01 13:22 48.34757 11.84336 3615 ft 204 kts 84°
2026-05-01 13:22 48.34925 11.86579 4244 ft 223 kts 84°
2026-05-01 13:23 48.35100 11.88882 5171 ft 227 kts 85°
2026-05-01 13:23 48.35284 11.91283 6036 ft 234 kts 85°
2026-05-01 13:23 48.35430 11.93758 6898 ft 239 kts 94°
2026-05-01 13:23 48.34897 11.96122 7730 ft 244 kts 126°
2026-05-01 13:24 48.33651 11.97849 8636 ft 249 kts 139°
2026-05-01 13:24 48.32271 11.99467 9534 ft 253 kts 139°
2026-05-01 13:24 48.30854 12.01095 10363 ft 260 kts 143°
2026-05-01 13:25 48.27267 12.02718 11558 ft 295 kts 179°
2026-05-01 13:25 48.25171 12.02572 12166 ft 306 kts 180°
2026-05-01 13:25 48.23046 12.02425 12926 ft 311 kts 180°
2026-05-01 13:25 48.20863 12.02279 13711 ft 316 kts 179°
2026-05-01 13:26 48.18652 12.02138 14441 ft 320 kts 179°
2026-05-01 13:26 48.16407 12.02005 15149 ft 324 kts 179°
2026-05-01 13:26 48.14167 12.01878 15850 ft 327 kts 179°
2026-05-01 13:26 48.11877 12.01679 16563 ft 333 kts 186°
2026-05-01 13:27 48.09632 12.00634 17191 ft 343 kts 205°
2026-05-01 13:27 48.07690 11.98526 17897 ft 348 kts 225°
2026-05-01 13:27 48.05530 11.92144 19165 ft 354 kts 257°
2026-05-01 13:28 48.04343 11.84933 20383 ft 359 kts 257°
2026-05-01 13:28 48.03733 11.81294 20982 ft 362 kts 257°
2026-05-01 13:29 48.02481 11.73929 22153 ft 368 kts 257°
2026-05-01 13:29 48.01269 11.66499 23317 ft 372 kts 264°
2026-05-01 13:30 48.00512 11.50895 25362 ft 380 kts 269°
2026-05-01 13:31 48.00137 11.43038 26355 ft 383 kts 269°
2026-05-01 13:31 47.99560 11.31005 27747 ft 391 kts 269°
2026-05-01 13:32 47.99161 11.22863 28603 ft 396 kts 269°
2026-05-01 13:33 47.98539 11.10450 29918 ft 403 kts 269°
2026-05-01 13:33 47.97863 11.02157 30631 ft 412 kts 258°
2026-05-01 13:34 47.96353 10.93678 30887 ft 429 kts 257°
2026-05-01 13:34 47.94773 10.84972 31128 ft 444 kts 257°
2026-05-01 13:35 47.93125 10.75910 31420 ft 457 kts 257°
2026-05-01 13:35 47.92290 10.71308 31637 ft 460 kts 257°
2026-05-01 13:35 47.90613 10.62091 32274 ft 462 kts 257°
2026-05-01 13:36 47.89766 10.57469 32716 ft 460 kts 257°
2026-05-01 13:36 47.88935 10.52941 33121 ft 459 kts 257°
2026-05-01 13:36 47.87245 10.43775 33920 ft 457 kts 256°
2026-05-01 13:37 47.86400 10.39206 34308 ft 456 kts 256°
2026-05-01 13:37 47.85589 10.34690 34639 ft 455 kts 260°
2026-05-01 13:37 47.85123 10.30061 34985 ft 451 kts 268°
2026-05-01 13:37 47.84940 10.25384 35312 ft 449 kts 269°
2026-05-01 13:38 47.84572 10.16112 35947 ft 447 kts 268°
2026-05-01 13:38 47.84381 10.11552 36313 ft 444 kts 268°
2026-05-01 13:38 47.84186 10.06966 36639 ft 443 kts 268°
2026-05-01 13:39 47.83987 10.02401 36934 ft 441 kts 268°
2026-05-01 13:39 47.83807 9.97844 37207 ft 440 kts 270°
2026-05-01 13:39 47.83722 9.93279 37302 ft 438 kts 271°
2026-05-01 13:40 47.83744 9.84290 37307 ft 435 kts 273°
2026-05-01 13:40 47.83806 9.75287 37299 ft 434 kts 272°
2026-05-01 13:41 47.83790 9.66299 37302 ft 432 kts 271°
2026-05-01 13:41 47.83167 9.57456 37299 ft 434 kts 261°
2026-05-01 13:42 47.82088 9.48603 37311 ft 434 kts 262°
2026-05-01 13:42 47.81031 9.39759 37307 ft 434 kts 262°
2026-05-01 13:43 47.79965 9.30978 37305 ft 434 kts 261°
2026-05-01 13:43 47.78881 9.22144 37308 ft 433 kts 261°
2026-05-01 13:44 47.77794 9.13316 37313 ft 432 kts 261°
2026-05-01 13:44 47.76706 9.04570 37319 ft 432 kts 261°
2026-05-01 13:45 47.75609 8.95771 37322 ft 431 kts 261°
2026-05-01 13:45 47.74513 8.87042 37311 ft 431 kts 261°
2026-05-01 13:46 47.73403 8.78265 37313 ft 430 kts 260°
2026-05-01 13:46 47.72298 8.69594 37321 ft 429 kts 260°
2026-05-01 13:47 47.71178 8.60868 37320 ft 429 kts 260°
2026-05-01 13:47 47.70047 8.52162 37306 ft 429 kts 260°
2026-05-01 13:48 47.68472 8.43678 37308 ft 430 kts 246°
2026-05-01 13:48 47.65302 8.36139 37292 ft 430 kts 235°
2026-05-01 13:49 47.61824 8.28976 37293 ft 430 kts 236°
2026-05-01 13:49 47.58333 8.21769 37296 ft 429 kts 235°
2026-05-01 13:50 47.54850 8.14621 37299 ft 429 kts 235°
2026-05-01 13:50 47.51349 8.07467 37292 ft 429 kts 235°
2026-05-01 13:51 47.47850 8.00311 37281 ft 429 kts 234°
2026-05-01 13:51 47.44370 7.93210 37276 ft 429 kts 234°
2026-05-01 13:52 47.40864 7.86074 37274 ft 429 kts 234°
2026-05-01 13:52 47.37352 7.78950 37272 ft 429 kts 234°
2026-05-01 13:53 47.33835 7.71836 37272 ft 429 kts 235°
2026-05-01 13:53 47.28569 7.61229 37270 ft 429 kts 234°
2026-05-01 13:54 47.25025 7.54117 37278 ft 429 kts 234°
2026-05-01 13:54 47.22080 7.48224 37271 ft 429 kts 235°
2026-05-01 13:55 47.18539 7.41139 37279 ft 429 kts 234°
2026-05-01 13:55 47.15002 7.34135 37280 ft 428 kts 233°
2026-05-01 13:56 47.11296 7.27267 37280 ft 428 kts 231°
2026-05-01 13:56 47.07534 7.20486 37262 ft 428 kts 231°
2026-05-01 13:57 47.03788 7.13678 37298 ft 428 kts 231°
2026-05-01 13:57 47.00083 7.06889 37282 ft 428 kts 232°
2026-05-01 13:58 46.96366 7.00067 37284 ft 428 kts 232°
2026-05-01 13:58 46.92636 6.93271 37489 ft 428 kts 231°
2026-05-01 13:59 46.90763 6.89867 37761 ft 428 kts 231°
2026-05-01 13:59 46.88919 6.86523 37991 ft 428 kts 231°
2026-05-01 13:59 46.87040 6.83123 38234 ft 427 kts 231°
2026-05-01 13:59 46.85168 6.79744 38470 ft 427 kts 231°
2026-05-01 14:00 46.83319 6.76404 38693 ft 427 kts 231°
2026-05-01 14:00 46.81449 6.73022 38923 ft 427 kts 231°
2026-05-01 14:00 46.79579 6.69651 39102 ft 427 kts 231°
2026-05-01 14:00 46.77701 6.66278 39243 ft 427 kts 231°
2026-05-01 14:01 46.73971 6.59579 39277 ft 427 kts 232°
2026-05-01 14:01 46.70215 6.52847 39281 ft 427 kts 232°
2026-05-01 14:02 46.66451 6.46118 39273 ft 426 kts 232°
2026-05-01 14:02 46.62726 6.39485 39272 ft 425 kts 232°
2026-05-01 14:03 46.58974 6.32818 39276 ft 425 kts 232°
2026-05-01 14:03 46.55241 6.26197 39280 ft 425 kts 232°
2026-05-01 14:04 46.51478 6.19530 39286 ft 425 kts 232°
2026-05-01 14:04 46.47730 6.12912 39280 ft 425 kts 231°
2026-05-01 14:05 46.43985 6.06325 39274 ft 425 kts 231°
2026-05-01 14:05 46.40219 5.99704 39288 ft 425 kts 232°
2026-05-01 14:06 46.36477 5.93137 39292 ft 424 kts 232°
2026-05-01 14:06 46.32717 5.86559 39292 ft 423 kts 232°
2026-05-01 14:07 46.28959 5.80007 39288 ft 422 kts 232°
2026-05-01 14:08 46.23346 5.70230 39279 ft 421 kts 232°
2026-05-01 14:08 46.19615 5.63743 39274 ft 421 kts 232°
2026-05-01 14:09 46.15857 5.57258 39268 ft 420 kts 232°
2026-05-01 14:09 46.12427 5.50523 39271 ft 418 kts 237°
2026-05-01 14:10 46.09122 5.43610 39274 ft 417 kts 237°
2026-05-01 14:10 46.05809 5.36717 39268 ft 417 kts 237°
2026-05-01 14:11 46.02513 5.29882 39262 ft 417 kts 237°
2026-05-01 14:11 45.97539 5.19584 39256 ft 417 kts 237°
2026-05-01 14:12 45.94235 5.12772 39258 ft 417 kts 237°
2026-05-01 14:12 45.90911 5.05934 39261 ft 416 kts 237°
2026-05-01 14:13 45.88151 5.00258 39259 ft 416 kts 237°
2026-05-01 14:13 45.84284 4.92328 39256 ft 416 kts 237°
2026-05-01 14:14 45.80959 4.85528 39258 ft 416 kts 237°
2026-05-01 14:14 45.77687 4.78744 39257 ft 415 kts 239°
2026-05-01 14:15 45.74674 4.71675 39258 ft 415 kts 241°
2026-05-01 14:15 45.71778 4.64517 39247 ft 415 kts 241°
2026-05-01 14:16 45.68855 4.57421 39254 ft 415 kts 240°
2026-05-01 14:16 45.65873 4.50348 39256 ft 415 kts 240°
2026-05-01 14:17 45.62880 4.43310 39258 ft 415 kts 240°
2026-05-01 14:17 45.59905 4.36292 39260 ft 415 kts 240°
2026-05-01 14:18 45.56914 4.29231 39261 ft 415 kts 240°
2026-05-01 14:18 45.54425 4.23378 39264 ft 415 kts 240°
2026-05-01 14:19 45.50919 4.15188 39261 ft 414 kts 239°
2026-05-01 14:19 45.47903 4.08153 39254 ft 415 kts 239°
2026-05-01 14:20 45.43402 3.97651 39252 ft 415 kts 239°
2026-05-01 14:21 45.40382 3.90628 39249 ft 415 kts 239°
2026-05-01 14:21 45.37370 3.83658 39257 ft 415 kts 239°
2026-05-01 14:22 45.32817 3.73141 39243 ft 416 kts 239°
2026-05-01 14:22 45.29786 3.66155 39237 ft 417 kts 239°
2026-05-01 14:23 45.26725 3.59133 39240 ft 418 kts 239°
2026-05-01 14:23 45.23668 3.52139 39240 ft 418 kts 239°
2026-05-01 14:24 45.20589 3.45119 39238 ft 418 kts 239°
2026-05-01 14:24 45.17531 3.38144 39255 ft 418 kts 239°
2026-05-01 14:25 45.14449 3.31125 39256 ft 419 kts 239°
2026-05-01 14:25 45.11365 3.24119 39256 ft 418 kts 238°
2026-05-01 14:26 45.06751 3.13689 39269 ft 418 kts 238°
2026-05-01 14:27 45.03653 3.06715 39268 ft 418 kts 238°
2026-05-01 14:27 45.00569 2.99793 39281 ft 418 kts 238°
2026-05-01 14:28 44.95916 2.89351 39283 ft 418 kts 238°
2026-05-01 14:28 44.92832 2.82445 39284 ft 417 kts 238°
2026-05-01 14:29 44.89726 2.75511 39284 ft 417 kts 238°
2026-05-01 14:30 44.83529 2.61731 39289 ft 416 kts 237°
2026-05-01 14:31 44.78850 2.51401 39290 ft 416 kts 237°
2026-05-01 14:31 44.75729 2.44522 39285 ft 416 kts 237°
2026-05-01 14:32 44.72623 2.37680 39285 ft 416 kts 237°
2026-05-01 14:32 44.69489 2.30799 39283 ft 416 kts 237°
2026-05-01 14:33 44.66360 2.23944 39279 ft 416 kts 237°
2026-05-01 14:33 44.63242 2.17138 39275 ft 416 kts 237°
2026-05-01 14:34 44.60116 2.10334 39267 ft 416 kts 237°
2026-05-01 14:34 44.56966 2.03487 39253 ft 416 kts 237°
2026-05-01 14:35 44.53822 1.96670 39247 ft 417 kts 237°
2026-05-01 14:35 44.50669 1.89846 39250 ft 417 kts 237°
2026-05-01 14:36 44.47530 1.83052 39239 ft 418 kts 237°
2026-05-01 14:36 44.44354 1.76206 39241 ft 418 kts 237°
2026-05-01 14:37 44.41192 1.69425 39243 ft 418 kts 237°
2026-05-01 14:37 44.38005 1.62596 39240 ft 418 kts 237°
2026-05-01 14:38 44.34822 1.55786 39245 ft 418 kts 237°
2026-05-01 14:38 44.31653 1.49019 39240 ft 418 kts 237°
2026-05-01 14:39 44.28456 1.42216 39235 ft 418 kts 237°
2026-05-01 14:39 44.25245 1.35420 39231 ft 418 kts 236°
2026-05-01 14:40 44.22062 1.28667 39234 ft 419 kts 237°
2026-05-01 14:40 44.18862 1.21875 39223 ft 419 kts 237°
2026-05-01 14:41 44.15644 1.15085 39223 ft 419 kts 237°
2026-05-01 14:41 44.12424 1.08325 39228 ft 419 kts 237°
2026-05-01 14:42 44.09215 1.01609 39218 ft 419 kts 237°
2026-05-01 14:42 44.05985 0.94845 39217 ft 419 kts 237°
2026-05-01 14:43 44.02772 0.88128 39209 ft 419 kts 237°
2026-05-01 14:43 44.00064 0.82474 39210 ft 419 kts 237°
2026-05-01 14:44 43.96851 0.75786 39208 ft 418 kts 237°
2026-05-01 14:44 43.91993 0.65704 39206 ft 418 kts 237°
2026-05-01 14:45 43.87137 0.55678 39199 ft 418 kts 237°
2026-05-01 14:46 43.83886 0.48971 39198 ft 419 kts 237°
2026-05-01 14:46 43.79016 0.38956 39197 ft 418 kts 237°
2026-05-01 14:47 43.75766 0.32302 39196 ft 418 kts 237°
2026-05-01 14:48 43.70869 0.22269 39197 ft 418 kts 236°
2026-05-01 14:48 43.65962 0.12275 39198 ft 419 kts 236°
2026-05-01 14:49 43.59424 -0.00970 39202 ft 418 kts 236°
2026-05-01 14:50 43.52859 -0.14217 39194 ft 418 kts 236°
2026-05-01 14:51 43.47945 -0.24122 39186 ft 418 kts 236°
2026-05-01 14:52 43.43003 -0.34044 39179 ft 418 kts 236°
2026-05-01 14:53 43.38060 -0.43892 39180 ft 418 kts 236°
2026-05-01 14:53 43.34767 -0.50442 39181 ft 418 kts 236°
2026-05-01 14:54 43.31461 -0.57022 39181 ft 418 kts 236°
2026-05-01 14:54 43.28169 -0.63565 39182 ft 418 kts 236°
2026-05-01 14:55 43.24847 -0.70144 39186 ft 418 kts 236°
2026-05-01 14:55 43.21528 -0.76696 39173 ft 418 kts 237°
2026-05-01 14:56 43.18230 -0.83198 39187 ft 417 kts 236°
2026-05-01 14:56 43.14911 -0.89726 39189 ft 417 kts 236°
2026-05-01 14:57 43.11584 -0.96261 39180 ft 417 kts 236°
2026-05-01 14:57 43.06606 -1.05988 39182 ft 417 kts 236°
2026-05-01 14:58 43.03277 -1.12482 39176 ft 417 kts 236°
2026-05-01 14:58 42.99966 -1.18926 39170 ft 417 kts 237°
2026-05-01 14:59 42.96631 -1.25408 39163 ft 417 kts 237°
2026-05-01 14:59 42.93292 -1.31891 39165 ft 417 kts 237°
2026-05-01 15:00 42.88288 -1.41559 39172 ft 417 kts 237°
2026-05-01 15:01 42.84931 -1.48024 39180 ft 417 kts 237°
2026-05-01 15:01 42.81581 -1.54474 39183 ft 417 kts 237°
2026-05-01 15:02 42.78246 -1.60882 39185 ft 416 kts 237°
2026-05-01 15:02 42.74882 -1.67328 39185 ft 416 kts 238°
2026-05-01 15:03 42.72438 -1.74337 39184 ft 412 kts 254°
2026-05-01 15:03 42.70763 -1.81806 39177 ft 412 kts 254°
2026-05-01 15:04 42.69089 -1.89215 39149 ft 412 kts 254°
2026-05-01 15:04 42.67408 -1.96669 39152 ft 411 kts 253°
2026-05-01 15:05 42.65729 -2.04060 39153 ft 411 kts 253°
2026-05-01 15:05 42.64036 -2.11483 39153 ft 410 kts 253°
2026-05-01 15:06 42.62325 -2.18895 39155 ft 410 kts 252°
2026-05-01 15:06 42.60551 -2.26219 39157 ft 410 kts 252°
2026-05-01 15:07 42.58743 -2.33576 39152 ft 410 kts 252°
2026-05-01 15:07 42.56947 -2.40931 39155 ft 410 kts 252°
2026-05-01 15:08 42.55161 -2.48239 39155 ft 409 kts 252°
2026-05-01 15:08 42.53364 -2.55576 39150 ft 409 kts 251°
2026-05-01 15:09 42.51579 -2.62855 39143 ft 409 kts 251°
2026-05-01 15:09 42.49773 -2.70200 39142 ft 409 kts 251°
2026-05-01 15:10 42.47959 -2.77513 39136 ft 409 kts 251°
2026-05-01 15:10 42.45202 -2.88402 39135 ft 409 kts 246°
2026-05-01 15:11 42.41643 -2.98911 39134 ft 408 kts 245°
2026-05-01 15:12 42.39284 -3.05850 39135 ft 408 kts 245°
2026-05-01 15:12 42.35723 -3.16291 39133 ft 408 kts 245°
2026-05-01 15:14 42.29756 -3.33649 39163 ft 406 kts 245°
2026-05-01 15:14 42.26182 -3.44015 39182 ft 405 kts 245°
2026-05-01 15:15 42.21420 -3.57745 39179 ft 404 kts 245°
2026-05-01 15:16 42.16651 -3.71418 39133 ft 403 kts 244°
2026-05-01 15:18 42.10677 -3.88503 39142 ft 402 kts 245°
2026-05-01 15:19 42.05906 -4.02019 39142 ft 400 kts 245°
2026-05-01 15:19 42.02299 -4.12186 39147 ft 400 kts 244°
2026-05-01 15:20 41.98533 -4.22150 39148 ft 400 kts 243°
2026-05-01 15:21 41.95977 -4.28787 39148 ft 400 kts 243°
2026-05-01 15:21 41.93433 -4.35433 39153 ft 399 kts 243°